KC3ROS Weather Reports


Display with metric or nautical units.
time (UTC)temp
F
wind
direction
speed
MPH
gust
MPH
rain 1hr
in
rain 24hr
in
rain mn
in
humidity
%
barometer
mb
20260507144153 53 232 3.0 12.0 0.00 0.00 0.00 53 1011.4
20260507143650 54 84 2.0 4.0 0.00 0.00 0.00 58 1011.4
20260507143147 54 200 6.0 8.0 0.00 0.00 0.00 56 1011.6
20260507142642 53 176 1.0 6.0 0.00 0.00 0.00 60 1011.6
20260507142139 53 236 4.0 9.0 0.00 0.00 0.00 63 1011.7
20260507141635 53 209 3.0 8.0 0.00 0.00 0.00 64 1011.7
20260507141132 52 297 5.0 8.0 0.00 0.00 0.00 63 1011.8
20260507140629 52 185 2.0 7.0 0.00 0.00 0.00 64 1011.9
20260507140126 51 258 4.0 5.0 0.00 0.00 0.00 66 1012.0
20260507135623 51 216 4.0 8.0 0.00 0.00 0.00 65 1012.0
20260507135121 51 311 4.0 9.0 0.00 0.00 0.00 67 1012.2
20260507134617 51 210 3.0 6.0 0.00 0.00 0.00 68 1012.1
20260507134113 51 250 1.0 6.0 0.00 0.00 0.00 68 1012.0
20260507133609 50 226 5.0 7.0 0.00 0.00 0.00 69 1012.3
20260507133107 50 206 4.0 8.0 0.00 0.00 0.00 67 1011.9
20260507132603 50 142 0.0 9.0 0.00 0.00 0.00 67 1012.0
20260507132100 49 245 3.0 5.0 0.00 0.00 0.00 70 1012.0
20260507131557 50 222 3.0 4.0 0.00 0.00 0.00 71 1012.1
20260507131054 49 197 2.0 3.0 0.00 0.00 0.00 74 1012.2
20260507130551 48 185 1.0 7.0 0.00 0.00 0.00 75 1012.2
20260507130049 48 203 1.0 3.0 0.00 0.00 0.00 77 1012.2
20260507125547 47 215 2.0 5.0 0.00 0.00 0.00 76 1012.1
20260507125044 47 173 1.0 3.0 0.00 0.00 0.00 77 1012.2
20260507124540 47 208 3.0 4.0 0.00 0.00 0.00 78 1012.2
20260507124038 46 51 3.0 3.0 0.00 0.00 0.00 82 1012.2
20260507123536 46 206 2.0 5.0 0.00 0.00 0.00 81 1012.2
20260507123033 45 211 2.0 4.0 0.00 0.00 0.00 82 1012.1
20260507122528 45 217 3.0 5.0 0.00 0.00 0.00 85 1012.1
20260507122024 44 214 0.0 3.0 0.00 0.00 0.00 85 1012.3
20260507121520 44 248 0.0 4.0 0.00 0.00 0.00 86 1012.1
20260507121016 43 185 1.0 2.0 0.00 0.00 0.00 87 1012.0
20260507120512 42 175 0.0 3.0 0.00 0.00 0.00 88 1012.0
20260507120010 42 210 1.0 3.0 0.00 0.00 0.00 89 1012.1
20260507115505 42 169 0.0 2.0 0.00 0.00 0.00 92 1012.2
20260507115001 41 249 0.0 2.0 0.00 0.00 0.00 94 1012.2
20260507114458 41 187 0.0 3.0 0.00 0.00 0.00 95 1012.1
20260507113955 41 196 1.0 2.0 0.00 0.00 0.00 95 1012.1
20260507113452 40 186 0.0 3.0 0.00 0.00 0.00 97 1012.2
20260507112949 40 192 0.0 2.0 0.00 0.00 0.00 97 1012.1
20260507112447 39 193 0.0 2.0 0.00 0.00 0.00 98 1011.8
20260507111943 39 186 0.0 1.0 0.00 0.00 0.00 97 1011.9
20260507111441 39 147 0.0 2.0 0.00 0.00 0.00 97 1012.0
20260507110937 39 97 0.0 2.0 0.00 0.00 0.00 97 1011.9
20260507110433 39 143 0.0 2.0 0.00 0.00 0.00 97 1011.9
20260507105930 38 180 0.0 1.0 0.00 0.00 0.00 98 1011.8
20260507105427 38 120 1.0 2.0 0.00 0.00 0.00 97 1011.7
20260507104923 39 136 1.0 2.0 0.00 0.00 0.00 97 1011.8
20260507104421 39 150 0.0 2.0 0.00 0.00 0.00 97 1011.7
20260507103916 38 232 0.0 2.0 0.00 0.00 0.00 97 1011.6
20260507103413 38 162 0.0 2.0 0.00 0.00 0.00 97 1011.5
20260507102909 38 184 0.0 2.0 0.00 0.00 0.00 97 1011.6
20260507102406 39 179 0.0 2.0 0.00 0.00 0.00 97 1011.5
20260507101902 38 112 0.0 3.0 0.00 0.00 0.00 97 1011.5
20260507101357 39 111 0.0 2.0 0.00 0.00 0.00 97 1011.7
20260507100854 39 124 0.0 2.0 0.00 0.00 0.00 97 1011.5
20260507100352 39 73 0.0 2.0 0.00 0.00 0.00 96 1011.5
20260507095850 39 148 0.0 1.0 0.00 0.00 0.00 96 1011.5
20260507095346 39 89 0.0 2.0 0.00 0.00 0.00 96 1011.6
20260507094844 39 105 0.0 2.0 0.00 0.00 0.00 96 1011.5
20260507094339 39 110 0.0 2.0 0.00 0.00 0.00 96 1011.6
20260507093837 39 111 1.0 2.0 0.00 0.00 0.00 95 1011.6
20260507093335 39 93 1.0 2.0 0.00 0.00 0.00 94 1011.4
20260507092833 39 57 0.0 2.0 0.00 0.00 0.00 94 1011.4
20260507092329 39 95 0.0 2.0 0.00 0.00 0.00 94 1011.6
20260507091825 39 203 0.0 2.0 0.00 0.00 0.00 94 1011.7
20260507091322 39 167 0.0 2.0 0.00 0.00 0.00 93 1011.7
20260507090818 39 160 0.0 2.0 0.00 0.00 0.00 92 1011.7
20260507090314 39 50 1.0 2.0 0.00 0.00 0.00 92 1011.6
20260507085811 39 89 0.0 1.0 0.00 0.00 0.00 91 1011.6
20260507085308 40 89 0.0 2.0 0.00 0.00 0.00 91 1011.5
20260507084806 40 123 2.0 2.0 0.00 0.00 0.00 90 1011.6
20260507084301 40 97 1.0 2.0 0.00 0.00 0.00 89 1011.8
20260507083759 40 95 2.0 2.0 0.00 0.00 0.00 88 1011.6
20260507083256 41 160 0.0 2.0 0.00 0.00 0.00 87 1011.8
20260507082752 41 113 1.0 2.0 0.00 0.00 0.00 87 1011.5
20260507082248 41 117 1.0 2.0 0.00 0.00 0.00 87 1011.6
20260507081745 41 71 0.0 2.0 0.00 0.00 0.00 87 1011.8
20260507081240 40 122 0.0 2.0 0.00 0.00 0.00 88 1011.7
20260507080737 40 93 1.0 2.0 0.00 0.00 0.00 87 1011.5
20260507080234 40 125 1.0 2.0 0.00 0.00 0.00 87 1011.7
20260507075729 40 94 2.0 3.0 0.00 0.00 0.00 87 1011.8
20260507075226 40 60 0.0 1.0 0.00 0.00 0.00 87 1012.0
20260507074722 41 89 0.0 2.0 0.00 0.00 0.00 87 1011.9
20260507074220 41 66 0.0 2.0 0.00 0.00 0.00 85 1011.6
20260507073716 41 89 1.0 2.0 0.00 0.00 0.00 83 1011.9
20260507073213 42 105 1.0 2.0 0.00 0.00 0.00 83 1011.6
20260507072711 42 97 1.0 2.0 0.00 0.00 0.00 83 1011.9
20260507072208 42 124 0.0 1.0 0.00 0.00 0.00 82 1011.9
20260507071705 42 66 0.0 0.0 0.00 0.00 0.00 83 1011.9
20260507071202 43 53 0.0 1.0 0.00 0.00 0.00 81 1012.0
20260507070659 43 104 0.0 1.0 0.00 0.00 0.00 80 1011.9
20260507070156 43 130 0.0 0.0 0.00 0.00 0.00 80 1012.0
20260507065652 43 130 0.0 0.0 0.00 0.00 0.00 79 1011.9
20260507065149 43 164 0.0 1.0 0.00 0.00 0.00 79 1011.9
20260507064646 43 113 0.0 1.0 0.00 0.00 0.00 80 1012.0
20260507064145 42 147 0.0 1.0 0.00 0.00 0.00 81 1012.0
20260507063642 42 89 0.0 1.0 0.00 0.00 0.00 82 1012.1
20260507063139 42 119 0.0 0.0 0.00 0.00 0.00 82 1011.8
20260507062636 43 130 0.0 0.0 0.00 0.00 0.00 83 1011.8
20260507062133 43 89 0.0 2.0 0.00 0.00 0.00 82 1012.1
20260507061631 43 60 0.0 1.0 0.00 0.00 0.00 80 1012.2
20260507061129 43 89 0.0 1.0 0.00 0.00 0.00 79 1012.0
20260507060627 43 132 0.0 1.0 0.00 0.00 0.00 80 1012.2
20260507060123 44 124 0.0 1.0 0.00 0.00 0.00 80 1012.2
20260507055618 44 135 0.0 0.0 0.00 0.00 0.00 80 1012.2
20260507055114 44 135 0.0 1.0 0.00 0.00 0.00 81 1012.2
20260507054610 44 76 0.0 1.0 0.00 0.00 0.00 81 1012.2
20260507054108 44 104 0.0 1.0 0.00 0.00 0.00 81 1012.3
20260507053606 44 108 0.0 1.0 0.00 0.00 0.00 81 1012.3
20260507053104 45 97 0.0 2.0 0.00 0.00 0.00 81 1012.5
20260507052602 45 98 2.0 2.0 0.00 0.00 0.00 81 1012.6
20260507052058 45 77 1.0 2.0 0.00 0.00 0.00 79 1012.7
20260507051555 45 82 1.0 2.0 0.00 0.00 0.00 79 1012.8
20260507051052 45 70 1.0 2.0 0.00 0.00 0.00 78 1012.7
20260507050549 45 69 2.0 2.0 0.00 0.00 0.00 78 1012.8
20260507050046 45 67 2.0 3.0 0.00 0.00 0.00 77 1012.8
20260507045542 46 49 1.0 3.0 0.00 0.00 0.00 77 1013.0
20260507045039 46 49 2.0 2.0 0.00 0.00 0.00 77 1012.7
20260507044536 46 54 2.0 3.0 0.00 0.00 0.00 77 1012.8
20260507044033 46 36 2.0 4.0 0.00 0.00 0.00 77 1012.7
20260507043528 46 58 2.0 3.0 0.00 0.00 0.00 77 1012.7
20260507043026 46 41 2.0 3.0 0.00 0.00 0.00 77 1012.6
20260507042522 46 42 1.0 3.0 0.00 0.00 0.00 77 1012.7
20260507042018 46 48 1.0 4.0 0.00 0.00 0.00 76 1012.8
20260507041515 46 28 1.0 3.0 0.00 0.00 0.00 76 1012.7
20260507041012 46 41 2.0 3.0 0.00 0.00 0.00 75 1012.8
20260507040508 46 29 2.0 4.0 0.00 0.00 0.00 74 1012.7
20260507040004 47 33 2.0 4.0 0.00 0.52 0.52 74 1012.5
20260507035500 47 33 2.0 2.0 0.00 0.52 0.52 72 1012.6
20260507034957 47 52 2.0 3.0 0.00 0.52 0.52 72 1012.5
20260507034454 47 27 2.0 3.0 0.00 0.52 0.52 71 1012.5
20260507033952 47 23 2.0 3.0 0.00 0.52 0.52 72 1012.5
20260507033449 47 35 2.0 3.0 0.00 0.52 0.52 72 1012.5
20260507032946 47 49 1.0 2.0 0.00 0.52 0.52 72 1012.5
20260507032443 47 35 1.0 3.0 0.00 0.52 0.52 72 1012.3
20260507031939 47 36 1.0 2.0 0.00 0.52 0.52 72 1012.5
20260507031436 47 38 1.0 3.0 0.00 0.52 0.52 72 1012.2
20260507030933 47 40 2.0 3.0 0.00 0.52 0.52 71 1012.4
20260507030430 47 48 1.0 3.0 0.00 0.52 0.52 71 1012.5
20260507025927 47 49 1.0 3.0 0.00 0.52 0.52 71 1012.5
20260507025424 47 49 2.0 3.0 0.00 0.52 0.52 70 1012.5
20260507024922 48 68 2.0 3.0 0.00 0.52 0.52 71 1012.3
20260507024419 48 54 2.0 3.0 0.00 0.52 0.52 70 1012.2
20260507023915 48 58 2.0 3.0 0.00 0.52 0.52 71 1012.3
20260507023412 48 70 2.0 3.0 0.00 0.52 0.52 71 1012.1
20260507022909 48 56 2.0 3.0 0.00 0.52 0.52 71 1012.5
20260507022406 48 55 2.0 3.0 0.00 0.52 0.52 71 1012.1
20260507021902 48 53 2.0 3.0 0.00 0.52 0.52 71 1012.0
20260507021357 48 60 2.0 3.0 0.00 0.52 0.52 70 1012.0
20260507020855 48 51 2.0 3.0 0.00 0.52 0.52 70 1011.9
20260507020351 48 45 2.0 3.0 0.00 0.52 0.52 70 1011.8
20260507015848 48 29 2.0 3.0 0.00 0.52 0.52 69 1011.9
20260507015347 48 45 1.0 3.0 0.00 0.52 0.52 70 1011.7
20260507014844 48 52 2.0 3.0 0.00 0.52 0.52 69 1011.6
20260507014339 48 49 1.0 2.0 0.00 0.52 0.52 70 1011.7
20260507013836 48 74 0.0 3.0 0.00 0.52 0.52 68 1011.6
20260507013333 49 43 3.0 3.0 0.00 0.52 0.52 68 1011.4
20260507012831 49 46 3.0 5.0 0.00 0.52 0.52 67 1011.3
20260507012326 49 47 2.0 4.0 0.00 0.52 0.52 69 1011.4
20260507011824 49 48 2.0 3.0 0.00 0.52 0.52 69 1011.3
20260507011321 49 46 2.0 3.0 0.00 0.52 0.52 69 1011.5
20260507010820 49 62 2.0 2.0 0.00 0.52 0.52 68 1011.3
20260507010316 49 65 1.0 2.0 0.00 0.52 0.52 68 1011.5
20260507005813 49 55 2.0 4.0 0.00 0.52 0.52 67 1011.7
20260507005310 50 48 2.0 3.0 0.00 0.52 0.52 67 1011.7
20260507004801 50 38 2.0 3.0 0.00 0.52 0.52 65 1011.7
20260507004258 50 28 2.0 4.0 0.00 0.52 0.52 65 1011.8
20260507003755 50 32 2.0 5.0 0.00 0.52 0.52 65 1011.9
20260507003250 50 15 2.0 3.0 0.00 0.52 0.52 65 1011.8
20260507002746 50 28 2.0 3.0 0.00 0.52 0.52 66 1011.8
20260507002242 50 52 4.0 5.0 0.00 0.52 0.52 65 1011.6
20260507001739 50 33 2.0 3.0 0.00 0.52 0.52 66 1011.6
20260507001237 51 56 1.0 3.0 0.00 0.52 0.52 66 1011.4
20260507000733 51 38 2.0 3.0 0.00 0.52 0.52 65 1011.5
20260507000229 51 15 2.0 4.0 0.00 0.52 0.52 64 1011.5
20260506235726 51 34 2.0 3.0 0.00 0.52 0.52 65 1011.7
20260506235221 51 341 4.0 6.0 0.00 0.52 0.52 65 1011.6
20260506234718 51 36 2.0 3.0 0.00 0.52 0.52 66 1011.8
20260506234216 51 50 1.0 3.0 0.00 0.52 0.52 66 1011.7
20260506233713 51 45 2.0 4.0 0.00 0.52 0.52 66 1011.5
20260506233209 51 349 2.0 3.0 0.00 0.52 0.52 65 1011.5
20260506232707 52 60 2.0 5.0 0.00 0.52 0.52 64 1011.1
20260506232201 52 4 2.0 4.0 0.00 0.52 0.52 65 1011.3
20260506231658 52 42 2.0 4.0 0.00 0.52 0.52 66 1011.3
20260506231157 52 67 1.0 4.0 0.00 0.52 0.52 68 1011.0
20260506230653 52 352 2.0 4.0 0.00 0.52 0.52 67 1011.0
20260506230150 52 17 2.0 5.0 0.00 0.52 0.52 66 1011.1
20260506225646 52 358 2.0 4.0 0.00 0.52 0.52 67 1010.9
20260506225143 53 11 2.0 4.0 0.00 0.52 0.52 67 1010.6
20260506224640 53 346 5.0 6.0 0.00 0.52 0.52 66 1010.6
20260506224136 53 23 1.0 5.0 0.00 0.52 0.52 66 1010.6
20260506223633 53 349 5.0 6.0 0.00 0.52 0.52 67 1010.6
20260506223129 53 51 2.0 3.0 0.00 0.52 0.52 65 1010.5
20260506222626 53 9 2.0 7.0 0.00 0.52 0.52 66 1010.5
20260506222122 53 10 2.0 3.0 0.00 0.52 0.52 69 1010.3
20260506221620 54 1 2.0 3.0 0.00 0.52 0.52 68 1010.5
20260506221118 54 41 2.0 3.0 0.00 0.52 0.52 68 1010.3
20260506220614 54 15 3.0 4.0 0.00 0.52 0.52 66 1010.2
20260506220109 54 28 2.0 3.0 0.00 0.52 0.52 66 1010.3
20260506215606 54 339 3.0 4.0 0.00 0.52 0.52 65 1010.0
20260506215102 54 3 1.0 3.0 0.00 0.52 0.52 67 1010.2
20260506214559 54 25 1.0 3.0 0.00 0.52 0.52 68 1010.1
20260506214056 54 354 3.0 5.0 0.00 0.52 0.52 69 1009.9
20260506213554 54 12 2.0 3.0 0.00 0.52 0.52 72 1009.9
20260506213051 54 265 4.0 5.0 0.00 0.52 0.52 69 1009.8
20260506212548 54 36 2.0 3.0 0.00 0.52 0.52 71 1009.8
20260506212043 53 356 3.0 5.0 0.00 0.52 0.52 70 1009.7
20260506211539 53 356 2.0 8.0 0.00 0.52 0.52 69 1009.8
20260506211036 54 333 4.0 7.0 0.00 0.52 0.52 69 1010.0
20260506210533 54 334 2.0 5.0 0.00 0.52 0.52 71 1009.5
20260506210030 54 64 1.0 3.0 0.00 0.52 0.52 74 1009.8
20260506205526 53 350 3.0 3.0 0.00 0.52 0.52 76 1009.7
20260506205021 53 9 3.0 4.0 0.00 0.52 0.52 76 1009.4
20260506204520 53 29 2.0 3.0 0.00 0.52 0.52 77 1009.4
20260506204016 53 20 2.0 3.0 0.00 0.52 0.52 77 1009.4
20260506203515 53 26 2.0 3.0 0.00 0.52 0.52 76 1009.6
20260506203011 53 7 2.0 3.0 0.00 0.52 0.52 75 1009.4
20260506202508 53 325 2.0 3.0 0.00 0.52 0.52 75 1009.3
20260506202004 53 354 3.0 5.0 0.00 0.52 0.52 75 1009.5
20260506201503 53 7 3.0 7.0 0.00 0.52 0.52 74 1009.4
20260506200959 53 328 2.0 5.0 0.00 0.52 0.52 73 1009.4
20260506200455 53 344 3.0 5.0 0.00 0.52 0.52 72 1009.4
20260506195951 53 340 5.0 6.0 0.00 0.52 0.52 75 1009.5
20260506195448 53 324 2.0 6.0 0.00 0.52 0.52 76 1009.4
20260506194945 53 3 2.0 5.0 0.00 0.52 0.52 78 1009.4
20260506194442 53 339 2.0 3.0 0.00 0.52 0.52 75 1009.3
20260506193939 53 36 2.0 4.0 0.00 0.52 0.52 73 1009.7
20260506193436 52 13 1.0 4.0 0.00 0.52 0.52 73 1009.7
20260506192933 52 311 1.0 4.0 0.00 0.52 0.52 77 1009.6
20260506192430 52 0 1.0 5.0 0.00 0.52 0.52 80 1009.7
20260506191926 52 320 2.0 3.0 0.00 0.52 0.52 81 1009.4
20260506191423 52 356 3.0 6.0 0.00 0.52 0.52 82 1009.6
20260506190920 52 338 3.0 6.0 0.00 0.52 0.52 81 1009.6
20260506190416 52 327 3.0 7.0 0.00 0.52 0.52 80 1009.5
20260506185913 52 29 3.0 4.0 0.00 0.52 0.52 84 1009.4
20260506185410 53 294 3.0 4.0 0.00 0.52 0.52 85 1009.4
20260506184908 54 345 2.0 3.0 0.00 0.52 0.52 84 1009.4
20260506184404 54 51 2.0 3.0 0.00 0.52 0.52 84 1009.5
20260506183902 53 147 0.0 4.0 0.00 0.52 0.52 85 1009.1
20260506183356 51 55 2.0 3.0 0.00 0.52 0.52 87 1009.4
20260506182854 52 38 2.0 4.0 0.00 0.52 0.52 88 1009.2
20260506182351 51 31 1.0 3.0 0.00 0.52 0.52 89 1009.2
20260506181848 51 29 2.0 3.0 0.00 0.52 0.52 88 1009.2
20260506181346 51 23 3.0 5.0 0.00 0.52 0.52 88 1009.5
20260506180843 51 5 2.0 7.0 0.00 0.52 0.52 88 1009.4
20260506180339 52 359 2.0 4.0 0.00 0.52 0.52 89 1009.1
20260506175836 52 9 2.0 4.0 0.00 0.52 0.52 89 1009.2
20260506175333 52 301 2.0 4.0 0.00 0.52 0.52 88 1009.3
20260506174830 52 227 0.0 6.0 0.00 0.52 0.52 88 1009.3
20260506174327 51 24 0.0 3.0 0.00 0.52 0.52 89 1009.2
20260506173825 51 29 3.0 6.0 0.00 0.52 0.52 89 1009.1
20260506173321 52 14 1.0 6.0 0.00 0.52 0.52 88 1009.1
20260506172818 51 332 5.0 6.0 0.00 0.52 0.52 89 1009.0
20260506172315 50 359 1.0 4.0 0.00 0.52 0.52 91 1009.0
20260506171812 51 0 1.0 2.0 0.00 0.52 0.52 93 1009.3
20260506171309 50 337 2.0 5.0 0.00 0.52 0.52 92 1009.2
20260506170807 51 301 2.0 3.0 0.00 0.52 0.52 93 1009.1
20260506170303 51 18 0.0 4.0 0.00 0.52 0.52 93 1009.4
20260506165802 51 18 1.0 4.0 0.00 0.52 0.52 92 1008.9
20260506165259 51 39 1.0 4.0 0.00 0.52 0.52 92 1008.9
20260506164756 51 322 3.0 5.0 0.00 0.52 0.52 92 1009.1
20260506164252 51 349 2.0 4.0 0.00 0.52 0.52 93 1009.0
20260506163749 51 6 1.0 4.0 0.00 0.52 0.52 97 1009.1
20260506163244 49 1 1.0 2.0 0.00 0.52 0.52 99 1008.9
20260506162740 48 355 2.0 5.0 0.00 0.52 0.52 99 1008.9
20260506162238 49 325 1.0 5.0 0.00 0.52 0.52 99 1008.8
20260506161730 48 59 3.0 5.0 0.00 0.52 0.52 99 1008.8
20260506161227 49 11 1.0 4.0 0.00 0.52 0.52 99 1008.7
20260506160724 48 335 2.0 4.0 0.00 0.52 0.52 99 1008.6
20260506160221 48 5 1.0 5.0 0.00 0.52 0.52 99 1008.8
20260506155720 48 0 2.0 4.0 0.00 0.52 0.52 99 1008.7
20260506155216 48 45 3.0 5.0 0.00 0.52 0.52 99 1008.5
20260506153318 48 20 2.0 5.0 0.00 0.52 0.52 99 1008.2
20260506152815 48 25 0.0 4.0 0.00 0.52 0.52 99 1008.4
20260506152312 47 342 3.0 5.0 0.00 0.52 0.52 99 1008.0
20260506151811 48 353 3.0 4.0 0.00 0.52 0.52 99 1008.0
20260506151307 48 328 3.0 4.0 0.00 0.52 0.52 99 1008.0
20260506150804 48 343 2.0 4.0 0.00 0.52 0.52 99 1007.8
20260506150304 48 31 2.0 5.0 0.00 0.52 0.52 99 1007.7
20260506145758 47 21 1.0 4.0 0.00 0.52 0.52 99 1007.7
20260506145254 48 341 3.0 4.0 0.00 0.52 0.52 99 1007.7
20260506144752 48 303 0.0 3.0 0.00 0.52 0.52 99 1007.6